Tracking 19570 objects as of 22-Feb-2019
HD Live streaming from Space Station
objects crossing your sky now

MOS 1B (MOMO 1B)

Track MOS 1B (MOMO 1B) now!
10-day predictions
MOS 1B (MOMO 1B) is classified as:


NORAD ID: 20478
Int'l Code: 1990-013A
Perigee: 913.2 km
Apogee: 920.1 km
Inclination: 99.4 °
Period: 103.2 minutes
Semi major axis: 7287 km
RCS: 3.7354 m2 (large)
Launch date: February 7, 1990
Source: Japan (JPN)
Launch site: TANEGASHIMA SPACE CENTER (TNSTA)
aabbcc
Your satellite tracking list
Your tracking list is empty




NASA's NSSDC Master Catalog

Two Line Element Set (TLE):
1 20478U 90013A   19052.94536792 +.00000181 +00000-0 +16763-3 0  9992
2 20478 099.3790 034.4071 0004690 227.4608 132.6157 13.95470846399279
Source of the keplerian elements: AFSPC